Location: Oshawa
(43.9000°N, 78.8670°W)
Time: 17:38:34
(UTC-04:00)

Amateur Radio Satellites - All Passes

Search period start: 25 March 2017 17:08
Search period end: 26 March 2017 17:08
Location: Oshawa, 43.9000°N, 78.8670°W

Satellite Date Start Highest point End Downlink Frequencies (MHz)
Time Altitude Azimuth
HO-68 25 Mar 17:32:16 17:34:00 11° 45° (NE) 17:35:44 435.675
LilacSat-2 25 Mar 17:36:55 17:39:38 19° 66° (ENE) 17:42:20 437.200
XW-2F 25 Mar 17:37:52 17:40:26 18° 66° (ENE) 17:43:00 145.980 - 146.000
STARS 25 Mar 17:38:03 17:41:38 24° 94° (E) 17:45:11 437.465
RS-15 25 Mar 17:45:34 17:55:48 29° 349° (N) 18:06:04 29.354- 29.394
SO-50 25 Mar 17:46:54 17:50:00 17° 324° (NW) 17:53:03 436.795
DOVE 4 25 Mar 17:51:33 17:55:54 40° 69° (ENE) 18:00:32 437.250
CUTE-I 25 Mar 17:55:38 18:00:30 36° 67° (ENE) 18:05:23 437.470
CUBESAT XI-V 25 Mar 17:56:29 18:01:07 64° 101° (ESE) 18:05:44 437.345
AO-7 25 Mar 17:57:57 18:02:40 16° 272° (W) 18:07:24 .
XW-2D 25 Mar 18:02:00 18:05:28 34° 71° (ENE) 18:08:56 145.860 - 145.880
NUDT-PHONESAT 25 Mar 18:05:58 18:09:15 29° 70° (ENE) 18:12:32 437.300
XW-2B 25 Mar 18:07:48 18:11:21 38° 72° (ENE) 18:14:54 145.730 - 145.750
KAITUO 1B 25 Mar 18:11:36 18:15:01 34° 71° (ENE) 18:18:26 145.475/437.950
PCSat 25 Mar 18:12:15 18:16:26 22° 42° (NE) 18:20:36 145.827
YUBILEINY 25 Mar 18:12:22 18:19:29 27° 65° (ENE) 18:26:34 435.215
XW-2C 25 Mar 18:17:45 18:21:27 52° 74° (ENE) 18:25:10 145.795 - 145.815
KKS-1 25 Mar 18:34:29 18:38:42 41° 290° (WNW) 18:42:53 437.445
XW-2A 25 Mar 18:38:05 18:39:27 12° 64° (ENE) 18:40:48 145.665 - 145.685
O/OREOS (USA 219) 25 Mar 18:46:43 18:50:53 35° 301° (WNW) 18:55:06 437.305
LilacSat-2 25 Mar 19:10:10 19:13:41 34° 263° (W) 19:17:12 437.200
XW-2F 25 Mar 19:10:49 19:14:20 35° 262° (W) 19:17:51 145.980 - 146.000
HO-68 25 Mar 19:13:16 19:20:05 50° 66° (ENE) 19:26:56 435.675
STARS 25 Mar 19:14:00 19:18:02 35° 291° (WNW) 19:22:02 437.465
CUBEBUG 2 25 Mar 19:17:42 19:20:55 18° 64° (ENE) 19:24:09 437.445
DOVE 4 25 Mar 19:30:01 19:33:46 24° 268° (W) 19:37:42 437.250
AAUSAT CUBESAT 2 25 Mar 19:30:44 19:33:02 15° 63° (ENE) 19:35:20 437.432
CUBESAT XI-V 25 Mar 19:35:16 19:37:58 16° 298° (WNW) 19:40:41 437.345
CUTE-I 25 Mar 19:35:46 19:40:33 32° 264° (W) 19:45:21 437.470
XW-2D 25 Mar 19:37:08 19:39:46 18° 267° (W) 19:42:23 145.860 - 145.880
NUDT-PHONESAT 25 Mar 19:40:26 19:43:13 20° 266° (W) 19:46:00 437.300
SEEDS 25 Mar 19:41:13 19:45:03 36° 70° (ENE) 19:48:53 437.485
XW-2B 25 Mar 19:43:21 19:45:43 16° 268° (W) 19:48:05 145.730 - 145.750
CUTE 1.7 + AOD 2 25 Mar 19:45:37 19:49:46 63° 74° (ENE) 19:53:56 437.475
KAITUO 1B 25 Mar 19:46:39 19:49:09 17° 267° (W) 19:51:39 145.475/437.950
XW-2C 25 Mar 19:54:29 19:55:58 12° 270° (W) 19:57:26 145.795 - 145.815
PCSat 25 Mar 19:54:58 20:00:25 74° 242° (WSW) 20:05:49 145.827
M-CUBED/EXP-1 PRIME 25 Mar 19:56:27 20:01:06 86° 111° (ESE) 20:05:47 437.505
STRAND 1 25 Mar 19:58:58 20:03:23 29° 95° (E) 20:07:45 437.568
AO-73 25 Mar 19:59:25 20:02:08 16° 63° (ENE) 20:04:51 145.935
RS-15 25 Mar 20:02:19 20:13:18 34° 24° (NNE) 20:23:59 29.354- 29.394
YUBILEINY 25 Mar 20:08:28 20:17:07 72° 266° (W) 20:25:45 435.215
XW-2A 25 Mar 20:08:29 20:11:49 45° 261° (W) 20:15:10 145.665 - 145.685
UWE-3 25 Mar 20:21:13 20:25:40 46° 72° (ENE) 20:30:05 435.000/436.395/437.385
Tancredo 1 25 Mar 20:40:35 20:41:13 10° 130° (SE) 20:41:52 437.200
CUBEBUG 2 25 Mar 20:52:27 20:57:07 56° 260° (W) 21:01:47 437.445
Oscar 11 25 Mar 20:59:10 21:03:21 51° 72° (ENE) 21:07:33 .
DELFI C3 25 Mar 20:59:26 21:01:46 15° 64° (ENE) 21:04:07 145.870
HO-68 25 Mar 21:01:40 21:08:01 34° 264° (W) 21:14:24 435.675
AAUSAT CUBESAT 2 25 Mar 21:04:04 21:08:03 53° 260° (W) 21:12:06 437.432
ZACube-1 25 Mar 21:04:18 21:08:51 76° 75° (ENE) 21:13:22 437.345
SEEDS 25 Mar 21:17:48 21:20:51 20° 267° (W) 21:23:55 437.485
CUTE 1.7 + AOD 2 25 Mar 21:24:26 21:26:01 12° 271° (W) 21:27:36 437.475
M-CUBED/EXP-1 PRIME 25 Mar 21:32:36 21:34:54 14° 305° (NW) 21:37:13 437.505
AO-73 25 Mar 21:33:26 21:37:55 59° 260° (W) 21:42:22 145.935
STRAND 1 25 Mar 21:37:55 21:42:36 37° 293° (WNW) 21:47:15 437.568
AO-85 25 Mar 21:46:03 21:50:24 56° 120° (ESE) 21:54:28 145.980
UWE-3 25 Mar 21:58:56 22:02:19 20° 268° (W) 22:05:41 435.000/436.395/437.385
YUBILEINY 25 Mar 22:08:22 22:12:13 14° 287° (WNW) 22:16:06 435.215
ISS 25 Mar 22:09:12 22:12:26 67° 145° (SE) 22:15:42 437.550
PRISM 25 Mar 22:13:09 22:16:35 24° 95° (E) 22:19:59 437.425
Tancredo 1 25 Mar 22:13:42 22:16:51 82° 147° (SSE) 22:20:02 437.200
RS-15 25 Mar 22:15:42 22:28:07 79° 53° (NE) 22:39:58 29.354- 29.394
DELFI C3 25 Mar 22:32:26 22:36:12 45° 261° (W) 22:39:59 145.870
TIGRISAT 25 Mar 22:34:17 22:37:36 20° 93° (E) 22:40:51 435.000
Oscar 11 25 Mar 22:37:14 22:39:47 15° 269° (W) 22:42:20 .
UNISAT 6 25 Mar 22:43:48 22:47:37 27° 95° (E) 22:51:20 437.425
ZACube-1 25 Mar 22:44:10 22:45:37 11° 272° (W) 22:47:03 437.345
LO-87 25 Mar 22:50:23 22:53:34 30° 70° (ENE) 22:56:48 145.935 - 145.965
SO-50 25 Mar 22:54:43 22:57:56 19° 38° (NE) 23:01:08 436.795
BEESAT 3 25 Mar 23:04:27 23:08:04 36° 117° (ESE) 23:11:44 437.485
ESTCUBE 1 25 Mar 23:09:26 23:13:23 32° 68° (ENE) 23:17:21 437.505/2401.250
BEESAT 2 25 Mar 23:18:42 23:21:42 21° 113° (ESE) 23:24:45 435.950
AO-85 25 Mar 23:27:55 23:31:04 20° 318° (NW) 23:34:07 145.980
FO-29 25 Mar 23:33:45 23:39:43 51° 98° (E) 23:45:01 435.910
AIST 2D 25 Mar 23:34:47 23:35:43 11° 90° (E) 23:36:39 435.315
SPROUT 25 Mar 23:41:45 23:44:47 19° 64° (ENE) 23:47:50 437.525
ISS 25 Mar 23:46:14 23:49:08 28° 344° (NNW) 23:52:03 437.550
PRISM 25 Mar 23:48:12 23:51:51 30° 292° (WNW) 23:55:29 437.425
Tancredo 1 25 Mar 23:50:34 23:53:17 25° 346° (NNW) 23:56:00 437.200
50 SAT 25 Mar 23:52:40 23:54:31 14° 65° (ENE) 23:56:23 437.505
POLYITAN 1 25 Mar 23:54:24 23:56:17 13° 90° (E) 23:58:09 437.675
QB50P2 25 Mar 23:58:25 00:00:57 15° 91° (E) 00:03:28 145.880/145.840
DX 1 26 Mar 00:06:55 00:09:52 18° 63° (ENE) 00:12:50 434.975-435.025
TIGRISAT 26 Mar 00:10:19 00:14:27 39° 290° (WNW) 00:18:29 435.000
DUCHIFAT 1 26 Mar 00:11:51 00:14:32 16° 92° (E) 00:17:11 145.980
UNISAT 6 26 Mar 00:20:26 00:24:17 29° 292° (WNW) 00:28:03 437.425
LO-87 26 Mar 00:24:37 00:27:06 18° 267° (W) 00:29:36 145.935 - 145.965
VELOX 1 26 Mar 00:25:20 00:29:40 62° 73° (ENE) 00:34:03 145.980
RS-15 26 Mar 00:29:18 00:39:23 33° 257° (WSW) 00:49:09 29.354- 29.394
SO-50 26 Mar 00:34:24 00:38:54 73° 237° (WSW) 00:43:22 436.795
BEESAT 3 26 Mar 00:42:28 00:45:45 25° 316° (NW) 00:49:06 437.485
ESTCUBE 1 26 Mar 00:46:26 00:50:11 26° 265° (W) 00:53:58 437.505/2401.250
UKube-1 26 Mar 00:47:41 00:51:32 32° 68° (ENE) 00:55:23 .
BEESAT 2 26 Mar 00:55:30 00:59:14 39° 311° (NW) 01:03:03 435.950
NANOSAT C BR1 26 Mar 00:56:19 01:00:30 55° 100° (E) 01:04:37 145.865
EO-79 26 Mar 01:00:19 01:04:34 67° 102° (ESE) 01:08:45 145.935-145.965
AIST 2D 26 Mar 01:05:51 01:09:13 46° 286° (WNW) 01:12:33 435.315
SPROUT 26 Mar 01:16:17 01:20:23 43° 261° (W) 01:24:31 437.525
FO-29 26 Mar 01:19:27 01:24:22 26° 300° (WNW) 01:28:53 435.910
ISS 26 Mar 01:23:44 01:26:19 21° 4° (N) 01:28:55 437.550
50 SAT 26 Mar 01:24:02 01:27:14 37° 261° (W) 01:30:30 437.505
Tancredo 1 26 Mar 01:27:38 01:30:08 20° 6° (N) 01:32:39 437.200
POLYITAN 1 26 Mar 01:28:16 01:32:28 60° 286° (WNW) 01:36:36 437.675
QB50P2 26 Mar 01:32:55 01:37:02 49° 288° (WNW) 01:41:06 145.880/145.840
DX 1 26 Mar 01:41:30 01:45:42 47° 260° (W) 01:49:56 434.975-435.025
DUCHIFAT 1 26 Mar 01:46:24 01:50:27 45° 288° (WNW) 01:54:27 145.980
VELOX 1 26 Mar 02:04:25 02:06:32 13° 270° (W) 02:08:41 145.980
BUGSAT 1 26 Mar 02:05:36 02:09:49 83° 284° (WNW) 02:13:57 437.445
BEESAT 26 Mar 02:10:56 02:14:34 22° 64° (ENE) 02:18:12 436.000
UKube-1 26 Mar 02:24:05 02:27:35 24° 265° (W) 02:31:07 .
ITUPSAT 1 26 Mar 02:26:02 02:30:10 29° 66° (ENE) 02:34:17 437.325
NANOSAT C BR1 26 Mar 02:33:20 02:35:45 15° 298° (WNW) 02:38:11 145.865
MOZHAYETS 4 26 Mar 02:35:47 02:38:26 15° 62° (ENE) 02:41:05
EO-79 26 Mar 02:37:50 02:39:46 13° 299° (WNW) 02:41:42 145.935-145.965
Oscar 19 26 Mar 02:40:20 02:45:29 63° 102° (ESE) 02:50:36 437.125/150
Gurwin Techsat 1B 26 Mar 02:48:39 02:53:44 43° 98° (E) 02:58:46 435.225
ISS 26 Mar 03:00:12 03:03:22 42° 23° (NNE) 03:06:33 437.550
Tancredo 1 26 Mar 03:03:42 03:06:48 47° 25° (NNE) 03:09:56 437.200
O/OREOS (USA 219) 26 Mar 03:15:35 03:20:11 62° 64° (ENE) 03:24:44 437.305
BEESAT 26 Mar 03:47:28 03:52:03 45° 261° (W) 03:56:39 436.000
KKS-1 26 Mar 03:57:54 04:01:27 23° 65° (ENE) 04:05:00 437.445
AO-7 26 Mar 04:00:49 04:08:03 32° 96° (E) 04:15:14 .
ITUPSAT 1 26 Mar 04:03:35 04:07:54 33° 263° (W) 04:12:14 437.325
MOZHAYETS 4 26 Mar 04:10:31 04:15:05 64° 259° (WSW) 04:19:40
Oscar 19 26 Mar 04:20:46 04:24:19 19° 299° (WNW) 04:27:51 437.125/150
ITAMSAT 1 26 Mar 04:25:43 04:30:52 57° 101° (E) 04:35:57 435.822/435.867
Gurwin Techsat 1B 26 Mar 04:29:02 04:33:27 27° 296° (WNW) 04:37:52 435.225
STARS 26 Mar 04:35:50 04:39:30 26° 66° (ENE) 04:43:10 437.465
ISS 26 Mar 04:36:50 04:39:47 30° 221° (SW) 04:42:44 437.550
AO-85 26 Mar 04:37:32 04:38:38 11° 34° (NE) 04:39:44 145.980
Tancredo 1 26 Mar 04:40:07 04:42:48 25° 223° (SW) 04:45:29 437.200
O/OREOS (USA 219) 26 Mar 04:56:34 04:59:02 14° 262° (W) 05:01:28 437.305
CUBESAT XI-V 26 Mar 05:00:49 05:05:23 72° 74° (ENE) 05:09:59 437.345
M-CUBED/EXP-1 PRIME 26 Mar 05:11:48 05:13:43 13° 55° (NE) 05:15:42 437.505
KKS-1 26 Mar 05:33:40 05:37:47 37° 262° (W) 05:41:58 437.445
DOVE 4 26 Mar 05:50:50 05:52:46 12° 86° (E) 05:54:42 437.250
AO-7 26 Mar 05:53:07 06:01:14 61° 295° (WNW) 06:09:20 .
ITAMSAT 1 26 Mar 06:06:06 06:09:54 21° 299° (WNW) 06:13:41 435.822/435.867
STARS 26 Mar 06:11:43 06:15:42 33° 263° (W) 06:19:44 437.465
CUTE-I 26 Mar 06:13:10 06:15:09 12° 87° (E) 06:17:09 437.470
AO-85 26 Mar 06:15:50 06:19:46 69° 54° (NE) 06:23:46 145.980
CUBESAT XI-V 26 Mar 06:41:30 06:43:17 12° 272° (W) 06:45:03 437.345
XW-2F 26 Mar 06:42:00 06:44:45 19° 93° (E) 06:47:29 145.980 - 146.000
LilacSat-2 26 Mar 06:42:11 06:45:07 21° 94° (E) 06:48:02 437.200
M-CUBED/EXP-1 PRIME 26 Mar 06:43:59 06:47:37 59° 255° (WSW) 06:51:34 437.505
XW-2D 26 Mar 07:06:58 07:10:32 40° 98° (E) 07:14:04 145.860 - 145.880
NUDT-PHONESAT 26 Mar 07:08:39 07:12:01 32° 97° (E) 07:15:20 437.300
XW-2B 26 Mar 07:12:50 07:16:28 46° 99° (E) 07:20:05 145.730 - 145.750
KAITUO 1B 26 Mar 07:15:06 07:18:37 39° 98° (E) 07:22:06 145.475/437.950
STRAND 1 26 Mar 07:15:54 07:20:49 47° 70° (ENE) 07:25:46 437.568
YUBILEINY 26 Mar 07:16:04 07:23:08 29° 82° (E) 07:30:09 435.215
BEESAT 3 26 Mar 07:19:46 07:23:30 36° 48° (NE) 07:27:13 437.485
XW-2C 26 Mar 07:22:56 07:26:40 64° 101° (E) 07:30:22 145.795 - 145.815
DOVE 4 26 Mar 07:25:47 07:31:09 89° 101° (E) 07:36:24 437.250
BEESAT 2 26 Mar 07:34:21 07:37:41 24° 44° (NE) 07:40:59 435.950
AO-7 26 Mar 07:47:53 07:52:22 16° 317° (NW) 07:56:51 .
CUTE-I 26 Mar 07:50:32 07:55:56 89° 291° (WNW) 08:01:17 437.470
NO-84 26 Mar 07:57:20 08:00:11 69° 139° (SE) 08:03:01 435.350 FM
AO-85 26 Mar 07:58:23 07:59:37 11° 250° (WSW) 08:00:52 145.980
XW-2F 26 Mar 08:15:39 08:18:56 29° 290° (WNW) 08:22:12 145.980 - 146.000
LilacSat-2 26 Mar 08:16:10 08:19:24 27° 291° (WNW) 08:22:38 437.200
HO-68 26 Mar 08:26:40 08:33:31 46° 99° (E) 08:40:20 435.675
XW-2D 26 Mar 08:42:10 08:44:24 15° 295° (WNW) 08:46:37 145.860 - 145.880
CUBEBUG 2 26 Mar 08:42:28 08:46:16 28° 94° (E) 08:49:57 437.445
NUDT-PHONESAT 26 Mar 08:43:11 08:45:42 18° 294° (WNW) 08:48:13 437.300
AAUSAT CUBESAT 2 26 Mar 08:45:11 08:48:20 21° 93° (E) 08:51:29 437.432
XW-2B 26 Mar 08:48:21 08:50:17 14° 296° (WNW) 08:52:13 145.730 - 145.750
KAITUO 1B 26 Mar 08:50:08 08:52:19 15° 295° (WNW) 08:54:30 145.475/437.950
ZACube-1 26 Mar 08:53:15 08:55:04 12° 89° (E) 08:56:51 437.345
STRAND 1 26 Mar 08:56:13 09:00:14 23° 267° (W) 09:04:15 437.568
BEESAT 3 26 Mar 08:57:41 09:00:56 24° 246° (WSW) 09:04:09 437.485
SEEDS 26 Mar 08:58:38 09:02:47 60° 101° (E) 09:06:55 437.485
PCSat 26 Mar 08:59:17 09:00:30 11° 101° (E) 09:01:43 145.827
XW-2C 26 Mar 08:59:32 09:00:21 11° 298° (WNW) 09:01:08 145.795 - 145.815
XW-2A 26 Mar 09:01:41 09:05:00 52° 286° (WNW) 09:08:17 145.665 - 145.685
PRISM 26 Mar 09:03:59 09:07:05 21° 66° (ENE) 09:10:13 437.425
CUTE 1.7 + AOD 2 26 Mar 09:04:35 09:08:49 77° 284° (WNW) 09:13:02 437.475
DOVE 4 26 Mar 09:05:17 09:08:03 14° 301° (WNW) 09:10:48 437.250
YUBILEINY 26 Mar 09:10:33 09:19:13 66° 282° (WNW) 09:27:55 435.215
BEESAT 2 26 Mar 09:11:46 09:15:36 41° 242° (WSW) 09:19:24 435.950
AO-73 26 Mar 09:20:41 09:24:02 22° 93° (E) 09:27:19 145.935
CUTE-I 26 Mar 09:32:30 09:35:12 14° 303° (WNW) 09:37:53 437.470
TIGRISAT 26 Mar 09:33:52 09:37:35 24° 66° (ENE) 09:41:17 435.000
NO-84 26 Mar 09:35:58 09:38:00 17° 339° (NNW) 09:40:03 435.350 FM
UNISAT 6 26 Mar 09:43:26 09:47:32 31° 68° (ENE) 09:51:38 437.425
FO-29 26 Mar 09:45:42 09:52:26 34° 63° (ENE) 09:58:47 435.910
UWE-3 26 Mar 09:45:44 09:50:06 82° 101° (E) 09:54:18 435.000/436.395/437.385
DELFI C3 26 Mar 10:08:35 10:11:30 19° 93° (E) 10:14:25 145.870
HO-68 26 Mar 10:14:38 10:21:06 38° 298° (WNW) 10:27:34 435.675
CUBEBUG 2 26 Mar 10:19:01 10:22:51 29° 292° (WNW) 10:26:32 437.445
AAUSAT CUBESAT 2 26 Mar 10:20:07 10:23:53 34° 290° (WNW) 10:27:39 437.432
Oscar 11 26 Mar 10:20:42 10:25:02 89° 96° (E) 10:29:20 .
ZACube-1 26 Mar 10:27:35 10:31:47 59° 286° (WNW) 10:35:52 437.345
SEEDS 26 Mar 10:35:51 10:37:59 14° 297° (WNW) 10:40:07 437.485
PCSat 26 Mar 10:37:33 10:42:57 79° 119° (ESE) 10:48:24 145.827
PRISM 26 Mar 10:38:29 10:42:10 33° 262° (W) 10:45:55 437.425
POLYITAN 1 26 Mar 10:48:38 10:50:36 13° 61° (ENE) 10:52:32 437.675
QB50P2 26 Mar 10:52:38 10:55:07 15° 62° (ENE) 10:57:36 145.880/145.840
AO-73 26 Mar 10:56:33 11:00:20 32° 291° (WNW) 11:04:01 145.935
DUCHIFAT 1 26 Mar 11:05:15 11:07:49 16° 63° (ENE) 11:10:23 145.980
TIGRISAT 26 Mar 11:09:37 11:14:02 40° 262° (W) 11:18:26 435.000
YUBILEINY 26 Mar 11:13:42 11:18:01 14° 306° (NW) 11:22:21 435.215
NO-84 26 Mar 11:16:09 11:16:33 10° 1° (N) 11:16:57 435.350 FM
UNISAT 6 26 Mar 11:20:05 11:24:12 30° 265° (W) 11:28:18 437.425
UWE-3 26 Mar 11:24:45 11:25:51 11° 301° (WNW) 11:26:56 435.000/436.395/437.385
FO-29 26 Mar 11:29:24 11:37:06 58° 260° (W) 11:44:22 435.910
AIST 2D 26 Mar 11:41:01 11:44:32 71° 76° (ENE) 11:48:04 435.315
DELFI C3 26 Mar 11:42:45 11:46:23 34° 289° (WNW) 11:49:59 145.870
LO-87 26 Mar 11:49:09 11:52:27 31° 97° (E) 11:55:43 145.935 - 145.965
NANOSAT C BR1 26 Mar 11:49:18 11:53:24 48° 72° (ENE) 11:57:31 145.865
EO-79 26 Mar 11:53:33 11:57:45 58° 73° (ENE) 12:01:59 145.935-145.965
Oscar 11 26 Mar 12:00:03 12:00:28 10° 301° (WNW) 12:00:53 .
VELOX 1 26 Mar 12:16:38 12:17:33 11° 88° (E) 12:18:28 145.980
POLYITAN 1 26 Mar 12:21:32 12:25:49 69° 258° (WSW) 12:30:07 437.675
Oscar 19 26 Mar 12:22:11 12:25:01 15° 58° (ENE) 12:27:51 437.125/150
PCSat 26 Mar 12:22:56 12:26:59 21° 319° (NW) 12:31:03 145.827
QB50P2 26 Mar 12:26:14 12:30:27 57° 260° (W) 12:34:41 145.880/145.840
Gurwin Techsat 1B 26 Mar 12:35:14 12:37:14 12° 56° (NE) 12:39:15 435.225
ESTCUBE 1 26 Mar 12:36:24 12:40:51 57° 100° (E) 12:45:18 437.505/2401.250
DUCHIFAT 1 26 Mar 12:38:54 12:43:04 53° 260° (W) 12:47:16 145.980
RS-15 26 Mar 12:40:13 12:51:09 44° 108° (ESE) 13:02:25 29.354- 29.394
50 SAT 26 Mar 12:48:18 12:49:40 12° 91° (E) 12:51:02 437.505
NO-84 26 Mar 12:52:50 12:55:05 18° 23° (NNE) 12:57:26 435.350 FM
BUGSAT 1 26 Mar 12:55:55 13:00:09 80° 77° (ENE) 13:04:26 437.445
SPROUT 26 Mar 13:00:41 13:04:23 27° 95° (E) 13:08:02 437.525
AO-7 26 Mar 13:14:35 13:18:05 13° 40° (NE) 13:21:35 .
FO-29 26 Mar 13:22:59 13:23:21 10° 277° (W) 13:23:43 435.910
LO-87 26 Mar 13:23:07 13:25:41 18° 293° (WNW) 13:28:14 145.935 - 145.965
NANOSAT C BR1 26 Mar 13:26:42 13:29:22 16° 269° (W) 13:32:02 145.865
DX 1 26 Mar 13:28:26 13:32:06 25° 95° (E) 13:35:45 434.975-435.025
EO-79 26 Mar 13:31:47 13:33:53 13° 270° (W) 13:36:00 145.935-145.965
VELOX 1 26 Mar 13:50:04 13:54:33 79° 285° (WNW) 13:59:00 145.980
Oscar 19 26 Mar 13:58:33 14:03:40 80° 256° (WSW) 14:08:49 437.125/150
ITAMSAT 1 26 Mar 14:08:32 14:11:25 15° 58° (ENE) 14:14:18 435.822/435.867
UKube-1 26 Mar 14:08:37 14:12:50 48° 100° (E) 14:17:00 .
Gurwin Techsat 1B 26 Mar 14:11:00 14:16:18 78° 74° (ENE) 14:21:39 435.225
ESTCUBE 1 26 Mar 14:14:25 14:17:13 17° 298° (WNW) 14:20:02 437.505/2401.250
50 SAT 26 Mar 14:19:36 14:22:57 43° 287° (WNW) 14:26:17 437.505
NO-84 26 Mar 14:29:46 14:32:56 81° 220° (SW) 14:36:23 435.350 FM
SPROUT 26 Mar 14:36:33 14:40:14 28° 292° (WNW) 14:43:53 437.525
SO-50 26 Mar 14:50:16 14:54:05 26° 114° (ESE) 14:57:53 436.795
RS-15 26 Mar 14:51:13 15:03:12 65° 312° (NW) 15:15:35 29.354- 29.394
AO-7 26 Mar 15:01:01 15:08:57 51° 62° (ENE) 15:16:52 .
DX 1 26 Mar 15:04:23 15:08:18 32° 292° (WNW) 15:12:11 434.975-435.025
ITAMSAT 1 26 Mar 15:44:57 15:50:12 83° 257° (WSW) 15:55:27 435.822/435.867
UKube-1 26 Mar 15:45:34 15:48:29 18° 297° (WNW) 15:51:25 .
BEESAT 26 Mar 15:45:57 15:50:25 39° 98° (E) 15:54:52 436.000
Gurwin Techsat 1B 26 Mar 15:54:06 15:56:51 14° 271° (W) 15:59:36 435.225
ITUPSAT 1 26 Mar 16:01:57 16:06:39 56° 101° (E) 16:11:18 437.325
MOZHAYETS 4 26 Mar 16:04:27 16:08:17 26° 95° (E) 16:12:06
SO-50 26 Mar 16:29:57 16:34:21 42° 311° (NW) 16:38:45 436.795
CUBESAT XI-V 26 Mar 16:56:59 16:59:54 16° 91° (E) 17:02:49 437.345
DOVE 4 26 Mar 16:57:38 16:59:58 14° 58° (ENE) 17:02:21 437.250
